Flag for France Weather past 2 weeks in Montpellier, France

Now
82 °F

Passing clouds.


Feels Like: 80 °F
Forecast: 64 / 82 °F
Wind: 10 mph from Northeast

Location: Montpellier Airport

Current Time: Jul 31, 2015 at 1:45:02 PM

Latest Report: Jul 31, 2015 at 1:00 PM


Visibility: N/A

Pressure: 29.86 "Hg

Humidity: 21%

Dew point: 39 °F

Location of MontpellierLocation

Historic Weather in Montpellier — Graph

°F

Montpellier temperature yesterday

Maximum temperature yesterday: 79 °F (at 12:00 AM)
Minimum temperature yesterday: 66 °F (at 9:00 AM)
Average temperature yesterday: 71 °F

Past Weeks' High & Low Weather Summary

 TemperatureHumidityPressure
High97 °F (Jul 23, 7:00 PM)88% (Jul 17, 3:30 AM)30.09 "Hg (Jul 17, 3:30 AM)
Low59 °F (Jul 31, 4:30 AM)21% (Jul 31, 11:30 AM)29.74 "Hg (Jul 24, 5:00 PM)
Average80 °F53%29.92 "Hg
* Reported Jul 16 12:00 Noon — Jul 31 12:30 PM, Montpellier, Weather by CustomWeather, © 2015

Note: Actual official high and low records may vary slightly from our data, if they occured in-between our weather recording intervals... More about our weather records

Advertising

Montpellier weather history for previous 24 hours

 ConditionsComfort  
Time TempWeatherWind HumidityBarometerVisibility
12:30 PM
Fri, Jul 31
82 °FPassing clouds.13 mph21%29.86 "HgN/A
12:00 PM82 °FPassing clouds.15 mph21%29.86 "HgN/A
11:30 AM81 °FSunny.15 mph21%29.86 "Hg10 mi
11:00 AM79 °FSunny.17 mph23%29.86 "Hg10 mi
10:30 AM77 °FSunny.17 mph28%29.86 "Hg10 mi
10:00 AM75 °FSunny.17 mph29%29.89 "Hg10 mi
9:30 AM75 °FSunny.15 mph29%29.89 "Hg10 mi
9:00 AM73 °FSunny.14 mph31%29.86 "Hg10 mi
8:30 AM70 °FPassing clouds.6 mph38%29.89 "HgN/A
8:00 AM66 °FSunny.5 mph46%29.89 "Hg10 mi
7:30 AM63 °FClear.6 mph56%29.89 "Hg10 mi
7:00 AM61 °FClear.7 mph55%29.86 "Hg10 mi
6:30 AM61 °FClear.5 mph59%29.86 "Hg10 mi
6:00 AM61 °FClear.8 mph59%29.89 "Hg10 mi
5:30 AM59 °FClear.7 mph63%29.86 "Hg10 mi
5:00 AM61 °FClear.6 mph59%29.86 "Hg10 mi
4:30 AM59 °FClear.8 mph63%29.89 "Hg10 mi
4:00 AM63 °FClear.9 mph59%29.89 "Hg10 mi
3:30 AM63 °FClear.5 mph64%29.89 "Hg10 mi
3:00 AM63 °FClear.7 mph64%29.92 "Hg10 mi
2:30 AM64 °FClear.7 mph60%29.92 "Hg10 mi
2:00 AM64 °FClear.8 mph60%29.92 "Hg10 mi
1:30 AM63 °FClear.6 mph64%29.92 "Hg10 mi
1:00 AM66 °FClear.5 mph56%29.92 "Hg10 mi
12:30 AM66 °FClear.5 mph49%29.92 "Hg10 mi
12:00 AM68 °FClear.5 mph46%29.92 "Hg10 mi
11:30 PM
Thu, Jul 30
68 °FPassing clouds.5 mph53%29.92 "HgN/A
11:00 PM66 °FClear.3 mph68%29.92 "Hg10 mi
10:30 PM68 °FClear.No wind64%29.92 "Hg10 mi
10:00 PM70 °FSunny.1 mph64%29.92 "Hg10 mi
9:30 PM72 °FSunny.2 mph61%29.89 "Hg10 mi
9:00 PM73 °FSunny.2 mph65%29.89 "Hg10 mi
8:30 PM75 °FSunny.No wind44%29.86 "Hg10 mi
8:00 PM75 °FSunny.No wind47%29.86 "Hg10 mi
7:30 PM75 °FPassing clouds.3 mph50%29.86 "HgN/A
7:00 PM75 °FSunny.6 mph54%29.89 "Hg10 mi
6:30 PM75 °FSunny.10 mph54%29.89 "Hg10 mi
6:00 PM73 °FSunny.12 mph57%29.89 "Hg10 mi
5:30 PM72 °FSunny.10 mph65%29.89 "Hg10 mi
5:00 PM72 °FBroken clouds.12 mph65%29.92 "HgN/A
4:30 PM72 °FLight rain. Broken clouds.12 mph65%29.92 "HgN/A
4:00 PM73 °FLight rain. Broken clouds.7 mph53%29.92 "HgN/A
3:30 PM73 °FSunny.8 mph47%29.92 "Hg10 mi
3:00 PM75 °FPassing clouds.6 mph44%29.95 "HgN/A
2:30 PM73 °FSunny.5 mph53%29.95 "Hg10 mi
2:00 PM73 °FPassing clouds.7 mph53%29.95 "HgN/A
1:30 PM73 °FPassing clouds.7 mph47%29.92 "HgN/A
1:00 PM73 °FPassing clouds.8 mph47%29.95 "HgN/A
Weather by CustomWeather, © 2015

See weather overviewHow to use our weather pages